Tracking 20942 objects as of 14-Jul-2020
HD Live streaming from Space Station
objects crossing your sky now

COSMOS 595

Track COSMOS 595 now!
10-day predictions
COSMOS 595 is classified as:


NORAD ID: 6852
Int'l Code: 1973-069H
Perigee: 1,405.6 km
Apogee: 1,492.3 km
Inclination: 74.0 °
Period: 114.7 minutes
Semi major axis: 7819 km
RCS: 0.6846 m2 (medium)
Launch date: October 2, 1973
Source: Commonwealth of Independent States (former USSR) (CIS)
Launch site: PLESETSK MISSILE AND SPACE COMPLEX (PKMTR)
aabbcc
Your satellite tracking list
Your tracking list is empty




NASA's NSSDC Master Catalog

Two Line Element Set (TLE):
1  6852U 73069H   20195.85153693 -.00000015 +00000-0 +35113-5 0  9998
2  6852 074.0013 053.6864 0055476 146.7251 224.8734 12.55445108143905
Source of the keplerian elements: AFSPC